Skip Page Navigation
NASA JPL Caltech
NASA Logo - Jet Propulsion Laboratory + View the NASA Portal
+ Center for Near-Earth Object Studies
JPL Home Earth Solar System Stars & Galaxies Technology
JPL Solar System Dynamics
BODIES ORBITS EPHEMERIDES TOOLS PHYSICAL DATA DISCOVERY FAQ SITE MAP
JPL Small-Body Database Browser
Search: [ help ]  
10694 Lacerda (1981 EH21)
Classification: Outer Main-belt Asteroid          SPK-ID: 2010694
Ephemeris | Orbit Diagram | Orbital Elements | Mission Design | Physical Parameters | Discovery Circumstances | Close-Approach Data ]

[ show orbit diagram ]
Orbital Elements at Epoch 2459000.5 (2020-May-31.0) TDB
Reference: JPL 28 (heliocentric ecliptic J2000)
 Element Value Uncertainty (1-sigma)   Units 
e .03566026973588748 3.7383e-08  
a 3.20895554530085 2.1882e-08 au
q 3.09452332498495 1.1706e-07 au
i 22.08220180802998 5.5932e-06 deg
node 177.8800113180372 1.1574e-05 deg
peri 128.4220603379083 8.3759e-05 deg
M 170.5984003772097 8.373e-05 deg
tp 2458005.515232991757
(2017-Sep-09.01523299)
0.00048663 TDB
period 2099.63584260441
5.75
2.1476e-05
5.88e-08
d
yr
n .1714583037187307 1.7538e-09 deg/d
Q 3.32338776561675 2.2663e-08 au
  Orbit Determination Parameters
   # obs. used (total)      1403  
   data-arc span      14499 days (39.70 yr)  
   first obs. used      1981-02-09  
   last obs. used      2020-10-21  
   planetary ephem.      DE431  
   SB-pert. ephem.      SB431-N16  
   condition code      0  
   norm. resid. RMS      .48429  
   source      ORB  
   producer      Otto Matic  
   solution date      2020-Nov-13 03:04:39  

Additional Information
 Earth MOID = 2.11418 au 
 Jupiter MOID = 1.81212 au 
 T_jup = 3.076 
[ show covariance matrix ]

Ephemeris | Orbit Diagram | Orbital Elements | Mission Design | Physical Parameters | Discovery Circumstances | Close-Approach Data ]

Physical Parameter Table
Parameter Symbol Value Units Sigma Reference Notes
absolute magnitude H 13.2   n/a MPO458933  
diameter diameter 11.708 km 0.158 urn:nasa:pds:neowise_diameters_albedos::2.0[mainbelt] (http://adsabs.harvard.edu/abs/2011ApJ...741...68M)  
rotation period rot_per 7.188 h n/a LCDB (Rev. 2019-August); Warner et al., 2009 Result based on less than full coverage, so that the period may be wrong by 30 percent or so.
Published Reference List:
[Waszczak, A.; Chang, C.-K.; Ofeck, E.O.; Laher, F.; et al. (2015) Astron. J. 150, A75.]
geometric albedo albedo 0.089   0.006 urn:nasa:pds:neowise_diameters_albedos::2.0[mainbelt] (http://adsabs.harvard.edu/abs/2011ApJ...741...68M)  

10694 Lacerda           Discovered 1981 Mar. 2 by S. J. Bus at Siding Spring.
Pedro Lacerda (b. 1975) is a Lecturer at Queen's University Belfast whose work includes analyzing rotational lightcurves to infer physical properties of trans-Neptunian objects and other small solar system bodies.
NOTE: some special characters may not display properly (any characters within {} are an attempt to place the proper accent above a character)
Reference: MPC batch dated 2017-03-12Last Updated: 2017-04-19

[ hide close-approach data ]
Close-Approach Data   ...sorted by Date/Time (TDB)
Date/Time (TDB) Time Uncertainty
(days_HH:MM)
Body Nominal Distance (au) Minimum Distance (au) Maximum Distance (au) V-relative (km/s) V-infinity (km/s) JD (TDB) Time Uncertainty (minutes) Semi-major axis (km) Semi-minor axis (km) range-LOV angle (deg) N-sigma BP Orbit Ref. Reference Modified
1903-Aug-02 20:57 00:03 Jupiter 1.99371521039093 1.9937132704246 1.99371715038264 6.84412762012999 6.78176896504528 2416329.372629105 2.86835790627095 382.566350762508 25.9315194561988 -75.8628565926239 4341732.49999466 T 28 CATAB v2.0f-lin.ifort 2020-Nov-13 03:04:42 2020-Nov-13 03:04
2059-Jan-25 11:42 00:01 Jupiter 1.9557561552805 1.95575538218995 1.95575692837327 6.41169509299087 6.34378828387331 2473118.987268650 1.21507426291512 165.020596969161 28.8864885754766 80.8589693027595 3555184.45097012 T 28 CATAB v2.0f-lin.ifort 2020-Nov-13 03:04:42 2020-Nov-13 03:04
2070-Apr-13 21:44 00:01 Jupiter 1.87706307825541 1.87706257706892 1.87706357944201 6.84165969804425 6.77538262875755 2477215.405436627 1.43755502990882 222.608945945823 24.4936686165054 -89.4041915763475 4081041.37939269 T 28 CATAB v2.0f-lin.ifort 2020-Nov-13 03:04:42 2020-Nov-13 03:04
2081-Jun-30 08:36 00:02 Jupiter 1.99138926105877 1.99138818195426 1.99139034017211 6.90778859729496 6.84593735552375 2481310.858527399 1.77563086958494 242.569013032593 24.5217106805641 -78.5460979677902 4442098.80295899 T 28 CATAB v2.0f-lin.ifort 2020-Nov-13 03:04:42 2020-Nov-13 03:04
Ephemeris | Orbit Diagram | Orbital Elements | Mission Design | Physical Parameters | Discovery Circumstances | Close-Approach Data ]
ABOUT SSD CREDITS/AWARDS PRIVACY/COPYRIGHT GLOSSARY LINKS
FirstGov 2020-Nov-26 04:30 UT
(server date/time)  
NASA Home Page
Site Manager:   Ryan S. Park
Webmaster  Alan B. Chamberlin